Regional Weather Roundup
Issued by NWS San Diego, CA

Home | Current Version | Previous Version | Text Only | Print | Product List | Glossary On
Versions: 1 2 3 4 5 6 7 8 9 10 11 12 13 14 15 16 17 18 19 20 21 22 23 24 25 26 27 28 29 30 31 32 33 34 35 36 37 38 39 40 41 42 43 44 45 46 47 48 49 50
768
ASUS46 KSGX 310111
RWRSGX

SAN DIEGO HOURLY WEATHER ROUNDUP
NATIONAL WEATHER SERVICE SAN DIEGO CA
600 PM PDT SAT JUL 30 2016

NOTE: "FAIR" INDICATES FEW OR NO CLOUDS BELOW 12,000 FEET WITH NO
SIGNIFICANT WEATHER AND/OR OBSTRUCTIONS TO VISIBILITY.

CAZ042-043-060-061-PZZ750-775-310200-

GREATER SAN DIEGO AREA

CITY           SKY/WX    TMP DP  RH WIND       PRES   REMARKS
LINDBERGH FLD  PTSUNNY   72  64  76 W7        29.84S
POINT LOMA       N/A     74  64  72 SW9         N/A
NATIONAL CITY    N/A     77  67  71 SW3       29.84F
CHULA VISTA      N/A     76  68  76 W3        29.76F
IMPERIAL BEACH MOSUNNY   76  65  68 SW9       29.84S
BROWN FIELD    MOSUNNY   79  64  60 NW6       29.84S
MIRAMAR MCAS   MOSUNNY   79  63  57 SW7       29.84R
MONTGOMERY FLD MOSUNNY   77  64  64 W8        29.84S

$$

NORTH SAN DIEGO COUNTY

CITY           SKY/WX    TMP DP  RH WIND       PRES   REMARKS
CAMP PENDLETON MOSUNNY   78  66  66 SW7       29.82S
OCEANSIDE AP   MOSUNNY   77  64  64 SW9       29.82S
OCEANSIDE HBR    N/A     75  68  79 SW3       29.85F
VISTA            N/A     80  68  67 SW3       29.80R
CARLSBAD       MOSUNNY   74  66  76 W8        29.82F
DEL MAR          N/A     74  68  81 CALM      29.86R
LA JOLLA SCRIP   N/A     72  68  87 SW3       29.82S
FALLBROOK        N/A     85  68  55 SW3       29.79S
ESCONDIDO        N/A     88  68  50 S2        29.83S
SAN MARCOS       N/A     79  66  64 W7        29.85S
POWAY            N/A     85  66  53 SW5       29.82S

$$

EAST SAN DIEGO COUNTY

CITY           SKY/WX    TMP DP  RH WIND       PRES   REMARKS
RAMONA         MOSUNNY   88  59  37 S6        29.87S
SANTEE LAKES     N/A     83  66  55 SW6       29.80S
LA MESA          N/A     79  65  62 CALM      29.76F
JAMUL            N/A     86  67  52 CALM      29.82S
DESCANSO N       N/A     82  61  49 W2        29.71S
MT. LAGUNA OBS   N/A     71  58  62 W3        29.73S
CAMPO            N/A     87  59  38 SW13      29.89S

$$

ORANGE COUNTY AND THE LOS ANGELES BASIN

CITY           SKY/WX    TMP DP  RH WIND       PRES   REMARKS
JOHN WAYNE AP  MOSUNNY   76  65  68 SW14      29.81F
LAGUNA BEACH     N/A     79  69  70 SE3       29.77F
LAKE FOREST FR   N/A     86  58  38 SW3       29.69F
HUNTINGTON BCH   N/A     78  69  73 S3        29.84S
LOS ALAMITOS   FAIR      77  66  68 S9        29.81F
FULLERTON      SUNNY     80  65  59 VRB6      29.80F
LONG BEACH     SUNNY     76  65  68 SW6       29.82F
L.A. AP        MOSUNNY   73  65  75 W12       29.83F
L.A. DOWNTOWN  SUNNY     79  66  64 W7        29.81F

$$

THE INLAND EMPIRE

CITY           SKY/WX    TMP DP  RH WIND       PRES   REMARKS
CORONA         SUNNY     88  66  48 NW12G18   29.79S
CHINO          MOSUNNY   89  64  43 W17       29.81F
ONTARIO        MOSUNNY   91  62  37 W17       29.81F
SAN BERNARDINO PTSUNNY   95  59  30 SW10      29.82F HAZE
RIVERSIDE AP   SUNNY     91  63  39 W8        29.81R
MORENO VALLEY    N/A     94  68  41 W5        27.97F HX  98
MARCH ARB      MOSUNNY   93  65  39 NW13      29.84S HX  95
HORSETHIEF CYN   N/A     95  60  30 E3        29.78F
PERRIS           N/A     91  60  35 S9        29.84S
HEMET EAST       N/A     86  60  40 W2        29.69F
FRENCH VALLEY  FAIR      88  61  40 SW10      29.85F
TEMECULA         N/A     87  64  46 SW7       29.79R

$$

SAN BERNARDINO AND RIVERSIDE COUNTY MOUNTAINS

CITY           SKY/WX    TMP DP  RH WIND       PRES   REMARKS
BIG BEAR AP    CLOUDY    72  59  64 W6        30.22F HAZE
PINE COVE        N/A     67  63  85 NW2       29.72R

$$

SOUTHERN DESERT INCLUDING THE COACHELLA VALLEY

CITY           SKY/WX    TMP DP  RH WIND       PRES   REMARKS
PALM SPRINGS   PTSUNNY   99  70  38 E7        29.75F BLWGDUSTHX 106
THOUSAND PALMS   N/A     97  71  43 SE3       29.71F HX 105
PALM DESERT      N/A     98  73  43 E1          N/A  HX 108
THERMAL        MOSUNNY  101  68  34 S8        29.68F HX 106
BLYTHE         SUNNY     99  69  37 S12       29.72F HX 105
IMPERIAL AP    MOSUNNY  103  69  33 SE15      29.68F HX 110
EL CENTRO NAS  MOSUNNY  101  66  31 SE10      29.70F HX 105
YUMA AZ        SUNNY     96  68  39 S14       29.73  HX 101
MEXICALI       MOSUNNY   93  66  40 SE16      29.72F HX  96

$$

UPPER DESERT

CITY           SKY/WX    TMP DP  RH WIND       PRES   REMARKS
VICTORVILLE AP MOSUNNY   97  54  23 S21       29.87F
HESPERIA         N/A     91  62  37 W8        29.78F
PALMDALE       SUNNY     94  58  29 SW26G35   29.85R
LANCASTER      SUNNY     96  58  27 SW24G32   29.83S HX  95
EDWARDS AFB    SUNNY    100  55  22 SW25G33   29.79S HX  98
DAGGETT        CLOUDY   102  46  15 S21G28    29.74F HX  98
29 PALMS N     CLOUDY    96  61  31 SW18      29.87F BLWGDUSTHX  96
NEEDLES        MOSUNNY  102  63  27 S16       29.73F HX 104

$$

REGIONAL REPORTS

CITY           SKY/WX    TMP DP  RH WIND       PRES   REMARKS
SANTA BARBARA  MOSUNNY   70  64  81 W13       29.80F
SANDBERG       SUNNY     88  52  29 S15G22    30.05F
LAS VEGAS NV   PTSUNNY  101  49  17 SE15G22   29.69F HX  98
PHOENIX AZ     MOSUNNY  101  62  27 W14       29.73F HX 102
TIJUANA        MOSUNNY   79  61  53 NW7       29.86F
ENSENADA NW      N/A     74  32  21 W3        29.82S

$$

OFFSHORE ISLANDS

CITY           SKY/WX    TMP DP  RH WIND       PRES   REMARKS
CATALINA ARPT  SUNNY     72  62  71 SW6       29.88F
SAN NICOLAS IS SUNNY     74  64  71 NW10      29.84S

$$

MARINE AND OFFSHORE BUOY REPORTS

STATION/POSITION SKY/WX   TEMP    WIND        PRES    SWELL
                          AIR SEA DIR/SP/G            HT/PER/DIR
                          (F)     (DEG/KT/KT) (MB)    (FT/S/D)
TANNER BANKS               62 65  280/  6/ 10 1010.7R   5/320/11
S CLEMENTE BASIN           67 70  230/ 10/ 12 1009.7F   3/200/15
SAN NICOLAS IS.               64                N/A     2/200/15
SO. S. ROSA ISLA           63 68  290/ 14/ 16 1009.9F   5/310/10
W. S. BARBARA CH           62 66  300/ 12/ 16 1010.2F   3/310/10
M. S. BARBARA CH                  270/ 12/ 14 1010.0F   2/250/ 7
S. MONICA BASIN            67 71  250/  6/  6 1010.0S
S PEDRO CHANNEL               77                N/A
OCEANSIDE OFFSHR                                N/A     2/210/15
TORREY PINES OTR                                N/A     2/190/18
LA JOLLA 1                    75                N/A
SAN DIEGO BAY                 79                N/A
POINT LOMA SOUTH              75                N/A     2/190/18

$$





USA.gov is the U.S. government's official web portal to all federal, state and local government web resources and services.